THOR ABLESTAR DEB, 648

Orbit data source: Space-Track

THOR ABLESTAR DEB, 648 is space debris in LEO originally from a launch on Thu, 29 Jun 1961 UTC launched from the Air Force Eastern Test Range (AFETR). Debris objects in space refer to the collection of defunct objects orbiting the Earth. Examples of debris include non-operational satellites, rocket bodies, and fragments generated from explosions, collisions, or faulty payload assembly.

Loading next visibility...
Identifier
648, 1961-015GZ
Orbit
LEO
Country
Flag of USUS
Related business
Manufacturer
Unknown
Mission
Spacecraft
Bus & Motor
Unknown
Mass
Unknown
Launch date (UTC)
1961-06-29 (65 years ago)
Launch vehicle
Unknown
Launch site
Air Force Eastern Test Range (AFETR)
Object type
Payload
Rocket body
Debris
Shape & HBR
Unknown shape, 0.1 m
Radar Cross Section
Small (<0.1 m²)

Expand to show TLE details & history
Last TLE update: 22 hours ago

TLE from 22 hours ago
0 THOR ABLESTAR DEB
1 00648U 61015GZ  26120.50586723  .00000246  00000-0  37891-3 0  9991
2 00648  65.8713 145.4594 0206045 248.8327 265.1484 13.59577515192496
Epoch: 2026-04-30T12:08Z
TLE epoch observation values (Epoch: 2026-04-30T12:08:26.928Z)
Latitude
25.74264°
Longitude
-87.5122°
Altitude
1,055.465 km
Speed
7.319 km/s
True Right ascension
20h 52m 12s
True Declination
25° 36' 49"
Sunlit
Object was in daylight at epoch
Visualization orbit readout
Latitude
Unknown
Longitude
Unknown
Altitude
Unknown
Speed
Unknown
Apparent Right ascension
Unknown
Apparent Declination
Unknown
Sunlit
N/A
Visualization observer readout
Local Sidereal Time
18:10:34
Azimuth
Unknown
Elevation
Unknown
Doppler factor
Unknown
Orbital elements
Apogee altitude
1,188.51 km
Perigee altitude
882.991 km
Semi-major axis
7,413.888 km
Eccentricity
0.0206
Inclination
65.8713°
RAAN
145.4594°
Arg. of periapsis
248.8327°
True anomaly
262.80153°
Mean anomaly
265.1484°
Eccentric anomaly
263.97437°
Mean motion
3.39996 °/min
Orbital period
105.88 mins
BSTAR
0.00037891
Loading maneuver chart data...
Computing Atmospheric mass density...
Loading historical data...
Loading historical data...
Loading historical data...
Loading historical data...
Loading historical data...
Loading historical data...
Loading historical data...

Documentation

Showing up to 5 results
|